Temp
39 34 31 35 37 40 40 41 41 48 55 51 49 51 56 62 64 60 61 63 64 67 71 72 71 71 72 71 73 74 72 71 72 70 67 66 66 69 71 73 74 76 77 75
34 29 41 43 40 38 36 37 41 49 54 51 49 49 57 59 59 59 62 63 64 65 68 69 69 69 69 69 70 71 72 71 71 70 69 67 67 67 67 69 71 73 73 74
32 39 45 42 38 35 36 35 41 39 50 51 50 45 52 59 59 60 63 64 66 65 66 67 67 66 68 68 68 69 71 72 70 70 67 67 66 66 66 67 66 68 69 69
35 44 41 41 37 38 34 44 42 46 42 33 46 30 42 49 56 58 57 59 60 63 66 68 67 64 64 65 67 69 69 70 69 68 66 64 64 62 63 65 66 67 67 67
32 37 40 35 37 42 37 42 43 42 42 42 41 35 40 52 51 55 58 59 61 63 64 66 65 66 65 63 60 64 67 67 66 66 66 64 65 66 65 66 67 66 67 67
35 43 42 43 44 44 42 42 43 41 38 28 37 38 39 46 52 54 60 61 62 62 64 66 65 65 62 61 61 61 62 65 65 65 64 63 64 64 64 64 63 65 66 66
35 37 42 44 35 39 36 35 28 27 27 28 41 37 41 52 58 58 60 60 63 62 63 63 63 61 60 59 59 58 59 59 62 63 64 65 65 65 65 64 63 64 64 64
29 24 37 41 38 34 34 34 28 20 21 28 42 31 40 53 56 58 58 59 62 62 62 63 63 62 60 59 57 57 59 57 59 59 60 60 61 60 60 61 62 63 63 63
31 29 41 42 42 40 34 31 37 30 36 28 35 38 47 52 52 53 53 58 55 56 61 62 63 62 60 57 56 56 56 57 57 58 58 60 60 58 57 58 58 58 59 61
35 28 40 41 44 40 35 37 31 32 24 25 32 33 39 46 48 52 51 52 53 55 57 59 62 62 61 58 57 58 57 57 59 60 59 60 58 58 58 56 55 55 56 57
41 35 32 39 36 33 33 32 35 37 33 25 24 31 44 46 51 51 52 54 56 56 59 59 59 61 59 57 56 56 56 57 57 58 59 57 56 55 54 53 52 52 52 53
39 35 28 31 42 47 43 38 39 31 32 31 30 31 49 49 52 53 53 55 53 56 57 57 57 56 55 54 55 54 53 53 53 55 56 56 55 55 52 51 51 52 51 51
40 35 29 30 35 40 34 40 42 41 35 32 29 32 51 48 50 53 51 52 53 53 53 54 54 54 52 53 53 52 52 51 52 52 51 52 53 53 52 51 52 52 52 51
45 36 32 29 34 37 30 37 42 35 31 35 32 38 45 48 49 51 52 52 52 52 53 53 52 52 52 53 52 52 51 51 51 51 50 49 49 50 48 48 49 48 49 48
42 33 35 41 43 41 38 37 40 34 38 32 39 41 47 48 46 50 51 53 53 52 52 52 51 51 51 51 52 52 51 50 50 49 48 46 46 46 46 46 46 46 46 46
41 34 39 32 43 42 36 42 42 41 42 41 41 39 48 51 52 51 48 53 52 52 53 53 54 52 50 50 51 51 50 50 50 48 46 46 46 45 44 44 44 44 44 44
41 36 33 30 38 39 31 39 40 41 42 42 36 43 47 48 51 49 50 52 53 53 53 53 53 52 52 52 52 49 49 49 49 48 47 46 46 45 44 44 43 42 41 41
38 39 37 28 30 22 36 44 45 43 45 45 45 46 48 48 50 50 51 50 52 54 54 54 53 53 53 53 52 51 50 48 47 47 46 47 46 45 44 43 41 39 39 41
44 39 33 28 29 33 36 40 40 38 39 47 44 47 49 49 47 46 51 51 50 52 55 55 55 54 54 53 52 50 48 47 46 46 45 46 46 44 42 39 39 41 39 36
44 42 34 30 26 25 35 42 48 45 32 47 47 46 45 45 35 39 48 49 49 51 51 52 55 55 53 52 51 49 47 45 44 46 45 46 45 43 40 39 39 36 38 35
34 35 29 31 27 33 42 45 46 28 34 47 47 45 45 41 42 45 47 47 48 48 47 50 52 52 52 52 50 47 46 44 45 47 45 44 43 41 40 37 37 36 35 35
35 31 31 33 28 24 46 43 38 45 47 49 47 45 45 46 47 47 47 47 47 46 46 47 45 45 46 48 47 45 44 44 44 44 43 42 40 41 39 38 36 36 35 34
33 37 33 36 36 45 46 45 48 49 47 47 48 47 47 47 46 47 46 46 46 46 46 46 45 44 44 45 46 43 42 43 43 42 40 40 40 40 41 37 36 34 35 34
40 43 37 39 43 44 47 48 48 48 47 48 49 49 49 46 47 46 47 46 45 45 44 46 45 44 42 43 45 45 44 44 42 40 40 39 38 40 39 37 36 35 34 33
39 41 40 40 44 43 46 46 47 49 49 49 50 49 48 47 48 49 47 47 45 45 45 44 43 43 43 43 43 43 44 45 42 42 43 41 40 40 37 36 36 35 36 36
44 39 34 36 43 41 42 46 48 47 46 47 47 46 47 48 47 47 44 44 44 43 44 43 43 43 43 43 42 44 45 45 44 43 42 40 38 38 36 35 34 40 39 40
MSLP
1015.78 1016.05 1015.56 1015.34 1015.47 1014.76 1014.15 1013.19 1011.80 1010.49 1009.68 1010.21 1010.17 1009.78 1009.06 1008.62 1008.36 1008.74 1009.13 1009.25 1009.14 1009.52 1009.53 1009.95 1010.51 1011.32 1012.02 1012.19 1012.39 1012.93 1013.76 1014.39 1015.01 1015.45 1016.10 1016.59 1016.88 1016.97 1017.24 1017.09 1017.16 1017.30 1017.73 1018.26
1015.98 1015.55 1014.97 1014.97 1015.48 1014.84 1014.41 1013.00 1011.66 1010.44 1009.77 1010.38 1010.44 1009.74 1009.45 1009.12 1008.81 1008.69 1008.89 1009.32 1009.08 1009.30 1009.41 1009.84 1010.43 1011.18 1011.92 1012.35 1012.42 1012.67 1013.21 1013.94 1014.62 1015.23 1015.61 1016.11 1016.51 1016.93 1017.10 1017.14 1017.24 1017.46 1017.51 1017.87
1015.12 1014.43 1014.36 1014.36 1014.75 1014.33 1014.19 1013.14 1011.99 1011.53 1010.28 1010.51 1010.33 1010.36 1009.90 1009.23 1009.05 1008.85 1008.97 1009.16 1008.91 1009.09 1009.46 1009.87 1010.47 1011.13 1011.82 1012.43 1012.69 1012.66 1012.95 1013.48 1014.22 1014.96 1015.41 1015.92 1016.63 1016.95 1017.33 1017.42 1017.43 1017.66 1017.75 1017.87
1014.80 1013.95 1013.81 1013.39 1013.99 1014.27 1013.84 1013.13 1012.63 1011.93 1011.48 1012.04 1011.71 1011.04 1010.61 1009.64 1009.05 1008.88 1009.13 1009.02 1008.68 1009.08 1009.34 1009.73 1010.27 1011.06 1011.84 1012.29 1012.84 1012.89 1013.02 1013.32 1013.98 1014.59 1015.44 1016.02 1016.57 1017.12 1017.47 1017.73 1017.75 1017.81 1017.88 1018.07
1014.85 1014.14 1013.50 1013.74 1014.00 1014.30 1014.28 1013.79 1012.63 1012.75 1011.93 1012.07 1011.48 1011.07 1010.13 1009.63 1008.89 1008.47 1008.70 1008.99 1009.09 1009.18 1009.35 1009.48 1010.29 1010.93 1011.80 1012.49 1012.99 1013.04 1013.19 1013.54 1014.05 1014.83 1015.27 1016.16 1016.65 1016.76 1017.10 1017.70 1018.02 1018.08 1017.87 1018.09
1014.92 1014.56 1013.91 1013.52 1014.22 1014.61 1014.81 1013.83 1013.16 1013.57 1013.24 1012.81 1011.64 1010.81 1009.45 1008.49 1007.67 1008.07 1008.37 1008.76 1008.90 1009.23 1009.36 1009.49 1010.10 1011.01 1011.95 1012.68 1013.34 1013.59 1013.64 1013.84 1014.15 1014.66 1015.32 1015.94 1016.41 1016.34 1017.96 1017.76 1018.32 1018.20 1018.07 1018.19
1014.37 1014.31 1014.19 1014.37 1014.92 1015.21 1015.13 1014.38 1014.29 1014.52 1013.61 1012.20 1011.13 1010.78 1008.93 1006.85 1006.94 1007.47 1007.67 1008.06 1008.41 1008.78 1008.96 1009.59 1010.48 1011.31 1012.19 1013.00 1013.54 1014.11 1014.38 1014.44 1014.71 1014.99 1015.28 1015.73 1015.55 1016.89 1017.54 1017.60 1018.49 1017.86 1018.22 1018.25
1013.81 1014.82 1014.77 1015.00 1015.03 1015.38 1015.50 1015.47 1014.85 1014.06 1013.04 1012.29 1011.01 1010.43 1008.59 1007.64 1007.08 1007.14 1007.27 1007.33 1008.01 1008.50 1008.57 1009.44 1010.45 1011.09 1011.92 1012.81 1013.42 1013.81 1014.35 1014.71 1015.07 1015.38 1015.75 1016.07 1015.98 1016.62 1017.79 1017.57 1018.08 1017.49 1017.75 1018.16
1013.92 1014.75 1015.01 1015.12 1015.30 1015.52 1016.05 1016.04 1015.12 1013.93 1012.36 1011.93 1011.06 1009.48 1008.17 1007.85 1007.79 1007.71 1007.63 1007.71 1008.11 1008.17 1008.50 1009.19 1009.94 1010.89 1011.65 1012.59 1013.34 1014.04 1014.46 1014.68 1015.31 1015.80 1015.82 1016.11 1016.85 1017.15 1017.41 1017.57 1017.85 1018.06 1018.17 1018.30
1014.06 1014.59 1015.05 1015.35 1015.21 1015.80 1015.85 1016.21 1015.21 1014.26 1013.14 1012.21 1010.94 1009.97 1008.80 1008.33 1008.30 1008.29 1008.30 1008.46 1008.68 1008.69 1008.82 1009.33 1009.83 1010.58 1011.51 1012.20 1013.05 1013.94 1014.71 1015.04 1014.96 1015.27 1015.96 1016.60 1017.18 1017.40 1018.04 1017.87 1018.04 1018.47 1018.50 1018.64
1013.83 1014.17 1015.19 1015.04 1014.70 1014.80 1015.79 1015.59 1014.98 1013.89 1012.54 1011.74 1011.46 1010.48 1008.93 1008.80 1008.56 1008.69 1008.82 1008.89 1008.96 1009.18 1009.35 1009.71 1010.22 1010.76 1011.56 1012.39 1013.08 1013.90 1014.61 1015.07 1015.49 1015.37 1015.32 1015.98 1017.25 1017.81 1017.90 1018.00 1018.52 1018.85 1018.80 1019.08
1014.48 1014.56 1014.84 1014.61 1013.91 1013.81 1014.05 1014.17 1014.13 1013.52 1012.68 1012.33 1011.85 1010.95 1009.72 1009.40 1009.26 1009.13 1009.31 1009.40 1009.52 1009.45 1009.77 1010.29 1010.74 1011.51 1012.15 1012.93 1013.50 1014.29 1015.02 1015.40 1015.77 1015.83 1015.46 1015.64 1016.91 1017.68 1018.05 1018.50 1018.58 1018.64 1019.03 1019.09
1014.46 1014.51 1014.43 1014.48 1014.58 1014.06 1013.89 1013.74 1013.57 1013.53 1013.40 1012.61 1011.76 1011.06 1010.23 1010.02 1009.78 1009.78 1009.80 1009.90 1010.03 1010.29 1010.69 1010.96 1011.37 1011.97 1012.69 1013.32 1013.93 1014.61 1015.24 1015.70 1015.94 1015.90 1015.91 1016.28 1017.37 1018.16 1018.32 1018.68 1018.75 1018.92 1019.01 1019.48
1014.11 1014.09 1013.93 1013.32 1012.54 1012.60 1013.17 1012.91 1012.96 1013.29 1013.09 1012.25 1012.18 1011.12 1010.51 1010.15 1009.91 1009.82 1009.90 1010.07 1010.47 1011.02 1011.21 1011.41 1012.05 1012.63 1013.15 1013.73 1014.29 1014.83 1015.43 1015.83 1016.00 1016.09 1016.56 1017.36 1018.06 1018.32 1018.54 1018.99 1019.08 1019.46 1019.49 1019.46
1013.95 1013.58 1013.58 1012.58 1012.07 1011.94 1012.13 1012.36 1012.41 1012.61 1012.17 1012.03 1011.62 1010.89 1010.54 1010.20 1010.02 1009.89 1009.96 1010.30 1010.70 1011.10 1011.51 1011.85 1012.37 1012.98 1013.43 1013.93 1014.42 1014.91 1015.52 1016.00 1016.29 1016.82 1017.40 1017.99 1018.28 1018.43 1018.84 1019.15 1019.53 1019.74 1019.79 1020.01
1013.88 1013.58 1013.02 1012.69 1012.00 1011.78 1011.85 1011.92 1012.00 1012.10 1011.89 1011.55 1011.18 1011.22 1010.59 1010.43 1010.37 1010.39 1010.35 1010.41 1010.79 1011.22 1011.69 1011.99 1012.37 1012.92 1013.55 1014.08 1014.58 1015.01 1015.64 1016.19 1016.59 1017.13 1017.66 1018.09 1018.45 1018.78 1019.21 1019.48 1019.81 1019.90 1020.10 1020.30
1013.76 1013.58 1013.09 1012.63 1012.19 1011.94 1012.12 1011.74 1011.67 1011.73 1011.51 1011.34 1011.29 1011.27 1011.10 1010.95 1010.88 1010.78 1010.88 1010.73 1010.84 1011.15 1011.53 1011.89 1012.32 1012.71 1013.26 1013.90 1014.32 1015.08 1015.63 1016.20 1016.69 1017.15 1017.67 1018.10 1018.47 1018.96 1019.38 1019.78 1020.10 1020.34 1020.56 1020.83
1013.62 1013.17 1012.84 1012.59 1012.49 1012.36 1011.98 1011.68 1011.53 1011.40 1011.26 1011.15 1011.26 1011.29 1011.20 1011.20 1011.19 1011.13 1011.09 1011.23 1011.22 1011.13 1011.30 1011.76 1012.09 1012.49 1012.99 1013.49 1014.14 1014.80 1015.53 1016.18 1016.74 1017.23 1017.69 1018.13 1018.54 1019.11 1019.47 1019.82 1020.23 1020.61 1020.84 1021.05
1013.29 1013.32 1012.99 1012.92 1012.42 1012.45 1012.01 1011.73 1011.53 1011.55 1011.50 1011.42 1011.47 1011.46 1011.43 1011.36 1011.52 1011.86 1011.69 1011.72 1011.68 1011.59 1011.40 1011.38 1011.81 1012.34 1012.78 1013.34 1013.92 1014.70 1015.52 1016.14 1016.71 1017.17 1017.61 1018.08 1018.37 1018.83 1019.34 1019.86 1020.28 1020.70 1021.12 1021.43
1013.19 1013.08 1013.58 1013.06 1012.86 1012.43 1012.17 1011.93 1011.74 1011.70 1011.85 1011.59 1011.74 1011.97 1012.04 1012.05 1012.60 1012.95 1012.59 1012.41 1012.38 1012.22 1012.13 1011.77 1011.77 1012.16 1012.84 1013.34 1013.89 1014.73 1015.54 1016.06 1016.67 1017.01 1017.44 1017.83 1018.17 1018.64 1019.17 1019.70 1020.26 1020.73 1021.06 1021.38
1012.90 1012.99 1013.07 1013.15 1012.83 1012.53 1012.16 1012.09 1012.15 1012.31 1012.63 1011.94 1012.08 1012.29 1012.43 1012.83 1013.22 1013.27 1013.06 1013.08 1012.99 1012.98 1012.81 1012.54 1012.42 1012.77 1013.04 1013.39 1014.02 1014.95 1015.44 1016.11 1016.44 1016.77 1017.41 1017.91 1018.22 1018.67 1019.09 1019.66 1020.24 1020.76 1021.07 1021.29
1012.81 1012.79 1012.76 1012.64 1012.65 1012.80 1012.20 1012.33 1012.39 1012.41 1012.04 1012.00 1012.07 1012.37 1012.55 1012.85 1013.16 1013.28 1013.39 1013.55 1013.70 1013.80 1013.73 1013.53 1013.54 1013.88 1013.93 1014.02 1014.38 1015.14 1015.61 1015.92 1016.27 1016.73 1017.53 1018.11 1018.44 1018.81 1019.25 1019.76 1020.32 1020.67 1020.95 1021.18
1013.28 1013.02 1013.10 1012.77 1012.78 1012.45 1012.23 1012.32 1012.36 1012.34 1012.33 1012.17 1012.25 1012.53 1012.71 1013.10 1013.51 1013.64 1013.90 1014.06 1014.19 1014.28 1014.31 1014.41 1014.47 1014.68 1014.71 1014.76 1014.91 1015.43 1015.75 1016.10 1016.41 1017.04 1017.70 1018.25 1018.54 1018.80 1019.18 1019.72 1020.09 1020.51 1020.78 1020.98
1012.95 1012.85 1012.90 1013.00 1012.89 1012.64 1012.68 1012.55 1012.46 1012.44 1012.59 1012.60 1012.65 1012.77 1012.95 1013.41 1013.62 1013.97 1014.25 1014.52 1014.60 1014.78 1014.87 1014.85 1014.90 1015.14 1015.21 1015.26 1015.34 1015.43 1015.83 1016.03 1016.46 1017.14 1017.68 1018.14 1018.45 1018.73 1019.08 1019.56 1019.90 1020.30 1020.59 1020.81
1014.07 1013.92 1013.55 1013.25 1013.74 1013.42 1013.35 1013.27 1013.26 1012.95 1012.97 1013.04 1013.11 1013.30 1013.50 1013.80 1013.97 1014.11 1014.57 1014.77 1015.01 1015.15 1015.14 1015.17 1015.37 1015.38 1015.49 1015.60 1015.73 1015.83 1015.93 1015.96 1016.53 1017.00 1017.34 1017.76 1018.14 1018.49 1018.99 1019.40 1019.74 1020.01 1020.11 1020.24
1014.40 1014.64 1014.62 1014.86 1014.75 1014.72 1014.21 1014.00 1013.80 1013.60 1013.41 1013.51 1013.72 1014.06 1014.21 1014.29 1014.57 1014.77 1015.33 1015.48 1015.53 1015.69 1015.78 1015.73 1015.69 1015.68 1015.69 1015.79 1015.96 1016.05 1016.06 1016.18 1016.66 1016.96 1017.18 1017.52 1017.89 1018.31 1018.73 1019.12 1019.42 1019.52 1019.62 1019.74
Wind_Speed
4 1 6 6 9 8 1 14 13 13 11 11 10 8 14 9 12 10 9 9 8 9 7 11 11 9 7 7 9 12 12 9 5 3 4 3 4 2 2 3 5 6 5 7
1 7 11 8 10 14 6 3 17 7 14 15 15 12 14 9 5 7 7 8 9 7 9 7 11 9 8 7 7 10 11 9 8 6 6 4 4 3 3 2 2 2 4 5
5 6 7 13 10 9 6 4 7 9 5 4 8 12 13 11 8 7 8 9 8 10 7 7 12 9 9 8 7 8 11 11 10 8 3 3 4 3 0 3 2 5 4 3
7 10 7 7 6 5 2 3 12 16 13 4 15 5 5 11 12 11 9 8 6 7 7 8 11 9 7 7 6 6 6 9 9 8 6 6 3 4 3 4 3 4 5 5
2 5 6 10 4 9 2 9 9 3 6 6 12 2 6 20 14 14 11 9 8 7 6 8 10 12 9 7 3 3 7 7 8 7 7 4 3 2 3 3 4 3 4 4
5 7 4 2 11 8 4 3 4 3 2 4 9 7 6 10 22 11 12 12 10 9 9 7 9 10 8 8 5 3 3 4 7 8 8 9 7 5 2 1 2 2 2 3
6 3 3 8 6 5 6 2 4 4 2 2 11 6 7 2 12 14 15 13 13 10 9 8 13 9 9 9 8 5 4 4 5 5 5 7 8 5 6 4 4 1 2 1
3 4 2 2 4 2 1 3 1 4 4 5 7 3 6 4 7 4 5 6 11 9 9 9 10 11 10 9 8 8 8 6 4 4 4 4 5 6 5 4 3 1 4 3
3 5 3 7 3 1 5 4 5 4 4 6 5 1 6 8 7 3 4 5 4 3 8 10 9 11 11 10 9 7 6 8 7 6 6 7 5 5 3 4 4 3 4 4
2 5 7 5 4 6 4 4 3 1 3 3 3 6 4 6 6 6 4 5 4 2 3 2 5 9 10 9 9 9 7 6 9 10 7 6 6 6 4 6 6 5 5 4
1 2 3 3 4 6 4 1 5 4 1 2 4 1 4 7 7 7 5 4 5 6 6 4 2 5 9 9 8 8 7 8 5 8 11 11 7 6 6 6 6 4 6 4
3 1 3 2 2 3 5 6 3 2 5 4 3 1 7 7 7 6 5 3 4 5 5 3 6 8 8 8 8 8 7 7 6 5 7 11 8 6 6 6 6 5 5 5
4 1 4 3 2 3 3 4 3 0 2 2 2 2 6 1 4 5 6 6 4 3 4 2 7 7 7 7 7 7 7 6 5 6 8 8 6 5 6 5 5 5 5 4
3 1 2 1 3 6 5 6 8 5 1 4 3 2 4 6 4 7 6 5 7 6 5 5 5 6 7 7 7 7 7 7 5 6 7 7 6 6 6 5 6 5 4 5
2 2 1 3 3 4 4 7 12 6 4 2 3 3 4 5 3 4 5 4 6 7 5 6 7 6 6 7 7 7 7 7 6 7 7 6 6 6 6 6 5 4 5 5
4 3 0 3 2 3 3 7 7 4 6 7 5 3 4 7 7 6 4 6 4 6 7 7 7 8 8 8 7 7 7 7 7 7 7 6 6 6 6 6 5 5 4 4
2 2 1 2 1 2 2 4 6 3 3 2 4 2 5 6 6 2 6 3 4 4 7 7 8 8 7 8 8 8 7 7 7 7 7 6 6 6 6 5 5 4 4 4
5 5 1 1 2 1 2 5 5 3 3 2 5 5 5 5 6 4 5 5 6 4 7 8 7 6 8 8 8 8 8 7 7 6 7 6 6 6 6 6 6 4 3 2
3 4 2 1 2 3 2 2 1 0 2 3 3 5 6 5 5 6 7 6 5 6 4 7 7 7 7 8 8 8 7 7 7 7 7 6 6 7 6 6 5 4 3 2
3 4 1 2 1 1 2 2 4 3 1 4 4 5 5 4 2 2 6 6 7 7 5 5 8 6 8 7 8 8 7 7 6 6 6 6 6 6 6 6 6 2 3 4
2 2 3 4 2 3 3 3 1 1 2 3 3 3 4 4 3 1 5 6 5 5 7 7 7 6 4 7 8 7 7 7 7 6 6 6 6 6 6 6 3 4 3 3
1 2 3 1 0 1 3 1 2 2 1 3 4 4 4 5 5 5 6 6 6 6 6 7 7 6 6 6 6 5 5 6 7 7 6 6 6 4 4 6 4 4 5 4
2 2 1 2 1 2 2 2 2 2 2 3 4 4 4 5 5 5 5 6 6 6 5 5 5 5 4 4 3 5 5 6 6 6 6 5 6 5 4 5 5 3 4 4
3 3 2 2 3 4 6 5 4 3 3 4 4 4 4 6 6 6 6 6 6 5 5 3 4 4 3 2 2 4 6 6 6 6 6 5 5 5 4 3 4 4 4 4
3 5 4 0 7 3 7 7 6 4 4 4 6 6 6 5 3 6 5 5 4 4 4 4 5 5 4 4 2 4 5 5 5 5 5 6 5 5 4 4 5 5 6 7
3 4 3 1 6 5 3 6 5 6 2 3 5 5 6 6 6 6 6 5 5 5 5 5 5 3 1 2 2 1 1 3 4 4 4 4 4 3 4 4 3 10 10 13
Wind_Direction
72 266 239 199 232 269 240 225 230 222 176 201 225 206 239 269 193 209 187 211 203 214 211 154 152 166 202 198 159 157 163 169 156 136 151 169 199 227 215 166 161 162 182 163
260 233 238 213 218 246 245 294 210 294 172 183 208 207 233 231 247 203 195 229 221 217 184 176 144 155 174 200 183 161 160 161 166 175 171 162 151 195 205 206 167 180 164 165
242 263 315 202 196 196 215 253 186 210 158 254 210 217 238 229 192 203 225 227 215 196 197 175 150 159 170 183 192 162 168 169 160 169 179 104 89 43 338 239 167 221 201 177
268 267 252 178 170 134 150 256 250 236 156 187 227 194 225 248 192 184 208 242 241 204 202 208 150 147 157 163 167 187 160 158 158 148 147 143 165 163 223 233 246 229 212 221
308 275 231 136 121 179 96 328 295 192 211 206 194 83 226 224 211 206 211 207 226 238 242 173 152 146 142 141 184 180 133 129 125 131 121 128 149 123 125 141 178 219 200 197
255 274 332 87 131 169 15 279 82 160 230 198 216 191 229 208 210 204 205 204 207 204 226 207 148 136 136 126 130 81 165 124 136 139 161 167 167 107 334 58 300 251 162 198
111 57 62 73 76 36 54 351 126 144 186 244 191 188 265 189 176 197 200 192 198 202 189 162 141 143 131 143 151 156 197 114 126 144 158 177 141 156 181 156 234 214 295 196
96 90 67 61 63 119 105 37 278 152 143 165 134 217 240 184 129 66 29 166 181 194 169 171 162 150 155 156 156 158 163 136 152 125 112 67 92 145 177 176 258 215 199 205
48 79 74 101 136 307 137 222 327 316 252 81 188 21 338 103 91 70 148 71 25 67 169 172 165 168 153 144 154 165 157 154 155 163 121 95 100 108 105 105 102 63 66 31
52 118 130 130 117 73 76 343 328 224 118 175 159 176 232 149 170 161 188 191 208 204 121 78 162 149 147 138 142 149 156 169 157 140 122 112 104 95 123 104 89 80 69 49
23 326 74 167 218 167 126 238 242 263 216 95 141 143 46 92 77 109 85 92 174 196 161 152 87 83 138 127 131 133 139 137 146 139 134 120 116 120 96 92 86 96 84 57
57 339 159 202 3 187 198 187 260 19 344 68 321 83 91 84 75 67 109 96 62 42 89 97 136 103 102 113 119 121 119 129 142 149 109 117 126 121 109 117 112 86 86 86
161 221 137 116 30 23 225 196 195 156 20 221 123 171 113 110 90 105 80 121 121 120 108 144 116 114 119 124 123 126 133 129 137 115 109 96 112 124 116 108 98 87 92 83
144 97 353 10 64 127 186 197 200 136 267 316 134 135 176 199 257 89 65 100 133 158 156 129 111 133 144 143 142 134 124 127 125 106 101 112 122 114 99 94 86 83 68 73
5 31 217 352 81 143 176 198 188 172 228 161 72 40 73 30 355 70 110 104 128 134 149 147 152 148 143 135 135 129 130 132 127 117 116 121 110 104 106 100 98 90 82 75
276 324 49 306 72 93 149 186 197 202 250 271 291 302 47 47 51 5 321 108 148 159 165 162 149 142 143 147 148 132 136 141 138 136 131 133 130 131 132 128 115 96 87 87
283 320 305 263 346 243 135 209 189 187 241 284 240 66 35 356 342 53 28 99 145 181 169 168 168 160 158 160 147 146 149 142 147 145 139 144 140 137 139 133 126 123 119 101
306 295 291 165 178 242 93 41 9 237 318 355 333 324 316 303 291 307 26 349 342 176 174 174 169 165 159 154 143 143 143 150 153 148 148 157 153 149 145 143 136 109 99 97
238 299 292 246 183 138 180 127 72 145 105 57 6 350 342 352 4 10 351 29 14 335 315 171 167 164 150 146 147 139 144 150 157 167 159 163 162 154 149 140 139 143 148 175
244 238 274 337 324 215 84 84 9 329 219 70 32 1 358 339 8 302 359 17 11 10 23 15 158 146 143 154 143 141 154 152 171 173 167 162 159 155 156 155 151 139 150 188
199 242 218 293 320 81 89 82 305 175 232 69 44 32 0 75 150 92 40 28 44 26 7 3 44 92 126 146 140 152 158 175 171 153 145 150 153 149 149 130 119 155 159 155
260 209 202 191 286 209 142 117 360 348 66 35 58 50 45 80 81 80 67 57 48 46 34 25 55 52 43 60 107 143 148 148 135 130 143 150 149 142 131 135 152 172 170 170
320 75 265 86 191 128 80 53 9 360 301 42 46 62 39 84 75 64 76 81 68 61 50 41 83 82 56 61 104 143 154 140 134 137 156 162 162 150 142 164 170 164 175 178
40 36 221 65 16 129 62 34 46 29 45 44 38 69 81 89 78 60 54 51 57 56 49 37 66 98 98 93 49 143 151 149 146 164 173 173 167 161 160 176 173 181 187 193
278 354 300 289 41 80 79 50 8 2 63 82 65 43 71 69 39 100 69 55 62 62 43 42 41 34 95 104 82 90 142 143 164 184 178 170 173 178 179 185 192 202 206 201
338 21 27 308 28 329 337 15 16 339 121 114 119 83 43 69 55 85 65 51 49 44 29 30 30 30 344 123 156 160 164 169 187 198 180 172 167 177 180 182 211 229 222 223